Tracking 19280 objects as of 14-Nov-2018
HD Live streaming from Space Station
objects crossing your sky now

BEIDOU G7

Track BEIDOU G7 now!


NORAD ID: 41586
Int'l Code: 2016-037A
Perigee: 35,756.3 km
Apogee: 35,827.3 km
Inclination: 0.7 °
Period: 1,436.0 minutes
Semi major axis: 42162 km
RCS: Unknown
Launch date: June 12, 2016
Source: People's Republic of China (PRC)
Launch site: Xichang Space Center, China (XSC)
aabbcc
Your satellite tracking list
Your tracking list is empty




NASA's NSSDC Master Catalog

Two Line Element Set (TLE):
1 41586U 16037A   18317.62941817 -.00000355 +00000-0 +00000-0 0  9993
2 41586 000.7344 010.8656 0008425 023.2574 355.6579 01.00278651008998
Source of the keplerian elements: AFSPC